STARLINK-30050 (55695 NORAD) Tracking and Keplerian Element Data

This shows tracking and keplerian element data for the satellite.

Feedback or suggestion? Click here.




ElementValue
Catalog55695
NameSTARLINK-30050
Epoch Orbit514
Epoch Day85.25001157
Epoch Year2023
RAAN126.4452
Inclination43.0036
Eccentricity0.0001381
Argument of Perigee261.7154
Mean Anonmoly63.7016
Mean Motion15.67833119
Decay Rate0.00091293
L11 55695U 23026A 23085.25001157 .00091293 00000+0 80083-3 0 9997
L22 55695 43.0036 126.4452 0001381 261.7154 63.7016 15.67833119 5148



Live tracking and technical data element details for STARLINK-30050 (NORAD 55695). STARLINK-30050 can be tracked NOW for your location showing map with azimuth and elevation plus other details from your city location.







IsCatalogInMostPopularTable: catalog: 55695, numindb: 3
Update: records affected: 1



GetName: 55695 STARLINK-30050

Hit Count: updated at: Tue, 28 Mar 2023 02:57:23 GMT